Regional Weather Roundup
Issued by NWS

Home | Current Version | Previous Version | Graphics & Text | Print | Product List | Glossary On
Versions: 1 2 3 4 5 6 7 8 9 10 11 12 13 14 15 16 17 18 19 20 21 22 23 24 25 26 27 28 29 30 31 32 33 34 35 36 37 38 39 40 41 42 43 44 45 46 47 48 49 50
000
ASUS45 KTFX 072310
RWRMT
MONTANA REGIONAL WEATHER ROUNDUP
NATIONAL WEATHER SERVICE GREAT FALLS MT
500 PM MDT TUE JUL 07 2015

NOTE: "FAIR" INDICATES FEW OR NO CLOUDS BELOW 12000 FEET WITH NO
SIGNIFICANT WEATHER AND/OR OBSTRUCTIONS TO VISIBILITY.

MTZ001>007-043-080000-
WEST OF THE DIVIDE

CITY           SKY/WX    TMP DP  RH WIND       PRES   REMARKS
KALISPELL      MOCLDY    75  50  41 VRB5      30.04F HAZE
MISSOULA       CLOUDY    76  47  35 N13       30.01F
BUTTE          MOSUNNY   74  40  29 W8        30.11F
MULLAN PASS    MOSUNNY   71  44  37 CALM      30.15F
DEER LODGE       N/A     72  48  43 N16G25    30.10F
EUREKA           N/A     81  48  32 E5        29.99F
HAMILTON         N/A     77  48  36 SE7       30.02F
LIBBY            N/A     79  54  41 W3        30.00F
PLAINS           N/A     79  50  36 N9        30.02F
RONAN            N/A     72  53  51 N13       30.09F
$$

MTZ008-052>055-080000-
SOUTHWEST MONTANA

CITY           SKY/WX    TMP DP  RH WIND       PRES   REMARKS
BOZEMAN        TSTM      70  49  47 NW31G38   30.02R
DILLON         PTSUNNY   74  42  31 NE10      30.05R
W YELLOWSTONE  MOSUNNY   75  32  20 N5        30.10F
$$

MTZ009-010-012-014-046-048-049-054-080000-
EAST SLOPES AND CENTRAL MONTANA

CITY           SKY/WX    TMP DP  RH WIND       PRES   REMARKS
CUT BANK       MOSUNNY   69  45  41 VRB3      30.13F
GREAT FALLS    PTSUNNY   67  49  52 CALM      30.12F
MALMSTROM AFB  SUNNY     65  53  64 NE3       30.12F
HELENA         PTSUNNY   75  48  38 N13       30.08S
CONRAD           N/A     71  54  55 SW1       30.14F
$$

MTZ011-013-016-021-045-047-050-051-080000-
NORTH CENTRAL MONTANA

CITY           SKY/WX    TMP DP  RH WIND       PRES   REMARKS
HAVRE          CLOUDY    73  53  49 SW13      30.05F
LEWISTOWN      PTSUNNY   70  46  42 N17       30.12S
CHINOOK          N/A     73  54  49 SW13      30.04F
FORT BENTON      N/A     66  52  59 SW5       30.11F
$$

MTZ017>020-022>027-061-062-080000-
NORTHEAST MONTANA

CITY           SKY/WX    TMP DP  RH WIND       PRES   REMARKS
GLASGOW        PTSUNNY   79  43  27 NW9       29.97F
JORDAN           N/A     78  46  32 N21       29.99F
SIDNEY         SUNNY     81  46  30 CALM      29.96F
WOLF POINT     MOSUNNY   78  50  37 SW5       29.97F
MALTA            N/A     76  46  34 NW6       29.98S
PLENTYWOOD       N/A     73  50  43 SW7       29.97F
POPLAR           N/A     81  48  32 W3        29.96F
SCOBEY           N/A     76  44  31 NW5       29.97S
$$

MTZ028>42-056>058-080000-
SOUTHCENTRAL AND SOUTHEAST MONTANA

CITY           SKY/WX    TMP DP  RH WIND       PRES   REMARKS
BAKER          MOSUNNY   79  50  36 NW12G18   29.96F
BILLINGS       MOSUNNY   82  41  23 NE17G24   30.02S
LIVINGSTON     MOSUNNY   77  43  29 NE15      30.04F
MILES CITY     SUNNY     83  42  23 NW9G20    29.95F
EKALAKA          N/A     77  45  32 NW14      29.97
FORSYTH          N/A     82  43  24 N8G21     29.96F
LAUREL           N/A     80  43  27 NE10      30.00S
ROUNDUP          N/A     79  41  25 N18       29.95S
$$

REGIONAL REPORTS...DAKOTAS

CITY           SKY/WX    TMP DP  RH WIND       PRES   REMARKS
WILLISTON      CLOUDY    73  53  49 N16G26    29.97S
MINOT          PTSUNNY   75  52  44 SE13      29.96F
DICKINSON      LGT RAIN  68  59  73 SE9       29.95F
BEACH          MOCLDY    64  64 100 S5        29.98S
CROSBY         FAIR      73  57  56 S10       29.96F
BISMARCK       PTSUNNY   73  57  57 S14       30.02F
GRAND FORKS    MOSUNNY   73  45  36 SW9G18    30.05F
FARGO          SUNNY     72  44  36 S9G18     30.08F
BUFFALO SD       N/A     76  53  44 SW7       29.91S
RAPID CITY     PTSUNNY   74  58  57 S21       30.02F
$$

REGIONAL REPORTS...WYOMING/IDAHO/WASHINGTON

CITY           SKY/WX    TMP DP  RH WIND       PRES   REMARKS
GILLETTE       PTSUNNY   74  53  48 S8        30.02F
SHERIDAN       PTSUNNY   75  52  44 SW9       30.02F
BUFFALO WY     CLOUDY    72  47  40 NW16G25   30.08F
CODY           CLOUDY    72  50  46 NW10      30.07F
YELLOWSTONE LA   N/A     64  41  42 VRB6      30.21F
IDAHO FALLS    MOSUNNY   83  43  24 CALM      29.98F
SALMON         PTSUNNY   73  46  38 N16G23    30.03F
BOISE          MOSUNNY   94  42  16 NW9       29.86F HX  90
SPOKANE        PTSUNNY   90  46  21 NE8G20    29.91F
$$

REGIONAL REPORTS...ALBERTA

CITY           SKY/WX    TMP DP  RH WIND       PRES   REMARKS
EDMONTON       SUNNY     66  36  32 NW7       30.06F
CALGARY        PTSUNNY   64  52  63 VRB6      30.13F
LETHBRIDGE     MOSUNNY   73  46  38 VRB2      30.09F
MEDICINE HAT   PTSUNNY   79  45  29 N9G17     30.03F
WATERTON GATE    N/A     70  48  46 E7          N/A
CARDSTON         N/A     72  52  49 SE5         N/A
MILK RIVER       N/A     72  48  43 W3          N/A
ONEFOUR          N/A     72  43  35 N9          N/A
$$

REGIONAL REPORTS...SASKATCHEWAN

CITY           SKY/WX    TMP DP  RH WIND       PRES   REMARKS
SWIFT CURRENT  SUNNY     72  48  43 N18G26    30.02R
REGINA         MOSUNNY   77  52  41 NW16G24   29.94R
SASKATOON      PTSUNNY   63  41  45 NW12      30.03F
CYPRESS HILLS    N/A     66  45  45 N3          N/A
VAL MARIE        N/A     75  41  29 N14G20      N/A
ROCKGLEN         N/A     72  45  37 W10G17      N/A
$$


USA.gov is the U.S. government's official web portal to all federal, state and local government web resources and services.